Location: NJAA Observatory
(40.6819°N, 74.8979°W)
Time: 08:43:07
(UTC-04:00)

S-56A Canister/Altair - Visible Passes

Search period start: 25 April 2018 00:00
Search period end: 05 May 2018 00:00
Orbit: 632 x 2501 km, 38.9° (Epoch: 24 April)

Date Brightness Start Highest point End Pass type
(mag) Time Alt. Az. Time Alt. Az. Time Alt. Az.
25 Apr 10.5 02:55:24 27° SSE 02:59:32 32° SE 03:11:39 10° E visible
25 Apr 10.2 04:52:49 16° SW 05:04:29 65° SSE 05:19:21 10° ENE visible
26 Apr 10.5 02:24:20 26° SSE 02:26:35 27° SE 02:37:42 10° E visible
26 Apr 10.1 04:21:45 23° SW 04:31:05 61° SSE 04:45:54 10° ENE visible
27 Apr 10.6 01:53:13 23° SE 01:53:43 23° SE 02:03:35 10° E visible
27 Apr 10.1 03:50:37 30° SSW 03:57:47 57° SSE 04:12:22 10° ENE visible
28 Apr 10.8 01:22:03 19° ESE 01:22:03 19° ESE 01:29:13 10° E visible
28 Apr 9.9 03:19:27 36° SSW 03:24:34 52° SSE 03:38:46 10° ENE visible
28 Apr 10.1 05:17:08 10° WSW 05:30:38 80° SSE 05:45:50 10° E visible
29 Apr 11.0 00:50:51 14° ESE 00:50:51 14° ESE 00:54:28 10° E visible
29 Apr 9.8 02:48:15 41° S 02:51:26 47° SE 03:05:05 10° ENE visible
29 Apr 10.0 04:45:39 15° WSW 04:57:07 78° SSE 05:12:24 10° E visible
30 Apr 9.9 02:17:00 41° SSE 02:18:24 42° SE 02:31:20 10° ENE visible
30 Apr 9.9 04:14:24 22° WSW 04:23:41 75° SSE 04:38:54 10° E visible
01 May 10.0 01:45:43 37° SE 01:45:43 37° SE 01:57:30 10° E visible
01 May 9.7 03:43:07 30° SW 03:50:19 72° SSE 04:05:19 10° E visible
02 May 10.2 01:14:25 31° ESE 01:14:25 31° ESE 01:23:36 10° E visible
02 May 9.6 03:11:48 40° SW 03:17:02 68° SSE 03:31:41 10° E visible
02 May 10.0 05:10:32 10° W 05:23:34 84° S 05:38:55 10° E visible
03 May 10.5 00:43:05 24° ESE 00:43:05 24° ESE 00:49:37 10° E visible
03 May 9.4 02:40:28 49° SSW 02:43:51 64° SSE 02:58:01 10° E visible
03 May 9.9 04:37:51 11° W 04:50:04 84° S 05:05:25 10° E visible
04 May 10.7 00:11:43 17° E 00:11:43 17° E 00:15:31 10° E visible
04 May 9.3 02:09:06 55° S 02:10:45 59° SSE 02:24:18 10° ENE visible
04 May 9.8 04:06:29 17° W 04:16:37 83° S 04:31:50 10° E visible
04 May 10.9 23:40:20 12° E 23:40:20 12° E 23:41:14 10° E visible
